THOR III

Last updated on July 19, 2019, 4:11 a.m. UTC

1 25358U 98035A   19199.85975653 -.00000123  00000-0  00000+0 0  9991
2 25358   7.1494  55.5888 0001187  86.6588 296.3260  0.98830422 77386
UTC
Height (km)
Latitude
Longitude
Inclination
Orbital Period
UTC large
Height (km)
Speed (km/s)
/
Latitude / Longitude
Inclination (degrees)
Orbital Period (minutes)
Azimuth
Elevation
Range (km)
Doppler Factor
iOS Compass Heading
iOS Angle

Next 30 passes for location: Hong Kong

Rise time Rise Azimuth (degrees) Set time Set Azimuth (degrees) Duration Max altitude (degrees)

No matching passes for this satellites